Location: Bouchavesnes-Bergen
(49.9859°N, 2.9203°E)
Time: 11:44:03
(UTC+00:00)

CZ-4B R/B - Pass Details

Date: 09 March 2021
Orbit: 496 x 646 km, 97.8° (Epoch: 13 April)

Event Time Altitude Azimuth Distance (km) Brightness Sun altitude
Rises 05:01:27 0° 12° (NNE) 2,644 7.6 -12.6°
Reaches altitude 10° 05:03:34 10° 11° (N) 1,737 6.6 -12.2°
Maximum altitude 05:07:17 78° 286° (WNW) 519 3.5 -11.7°
Drops below altitude 10° 05:10:55 10° 200° (SSW) 1,694 6.1 -11.1°
Sets 05:12:58 0° 199° (SSW) 2,571 7.0 -10.7°
